Retour au catalogue

STARLINK-36898

ActifCommunicationsVLEO
NORAD 68002·PAYLOAD·🇺🇸 United States

Lancé Feb 27, 2026 depuis Vandenberg Space Force Base

Loading…

Prochains Passages (prochaines 24 heures)

TLE

FraisSource: CelesTrak SupGP

Époque: Sep 15, 2026, 03:14 UTC

1 68002C 26039S   26258.13520833 -.00028521  00000+0 -10327-2 0  2586
2 68002  43.0001  59.3428 0001502 266.7426  75.9853 15.27602497    19

Suivez STARLINK-36898 en temps réel avec AllMySat

Download on the App Store